Погода в Каунасе

Поиск расширенной информации на нашем сайте:

Полезная информация:

Новости сайта



02.01.2020
Опубликован Долгосрочный прогноз погоды по городам России и ближнего зарубежья на январь 2020 года.
Карты: Прогноз на январь и февраль 2020 года, Сравнение прогнозируемой аномалии приземной температуры воздуха на январь 2020 года по разным моделям.




Погода в Каунасе - сегодня

Время (UTC), дата Ветер
(°,м/с) 
Видим.   Явления Облачность Т
(°С)
Тd
(°С)
f(%) Тe
(°С)
Pmin
(гПа)
dP
(гПа)
Po
(мм)
O2
(г/м3)
Тmin Tmax R s Состояние
почвы
09 16.01.21 110 (В) 1-3{03}  2000 м  слаб. снег  10/10 1050 м 
[Ns]
-12.6 -14.4 86 -13  1014.4  -0.8  753  319           
12 16.01.21 100 (В) 4-6{06}  4900 м  слаб. снег  9/9 450 м 
[Sc]
-12 -15 78 -16  1014.2  -0.1  753  319      0.9  13   
15 16.01.21 080 (В) 3-4{06}  13000 м  в посл. час снег  4/4 300 м 
[Sc]
-15.2 -18.5 76 -19  1016.2  1.8  754  323           
18 16.01.21 040 (СВ) 2-4{07}  9000 м  дымка{снег}  ясно 
-17.7 -20 82 -20  1018.3  2.1  756  327    -11.9  13   
21 16.01.21 040 (СВ) 2-4{05}  11000 м    ясно <0100 м 
-19.1 -21.4 82 -22  1019.9  1.5  757  330           
00 17.01.21 270 (З) 2-2{03}  8000 м  дымка  ясно 
-20.7 -22.7 84 -24  1020  757  332        13   
03 17.01.21 340 (С) 2-3{03}  10 км    ясно 
-21.4 -23.5 83 -24  1020.9  0.9  758  333           
06 17.01.21 330 (СЗ) 2-2{03}  13000 м    3/0 верхняя 
[Ci fib]
-21.7 -24 82 -25  1021.5  0.6  758  334  -21.9      13  равномерный
сухой снег
100% 
09 17.01.21 230 (ЮЗ) 2-2{04}  9000 м  дымка  3/0 верхняя 
[Ci fib]
-20 -22.3 82 -23  1022.6  1.1  759  332           
12 17.01.21 330 (СЗ) 2-2{04}  9000 м  дымка  3/0 верхняя 
[Ci fib]
-17.1 -20 78 -20  1022.6  0.1  759  328        13   
15 17.01.21 280 (З) 1-2{03}  9000 м  дымка  1/0 верхняя 
[Ci fib]
-18.3 -20.5 83 -19  1022.9  0.3  759  330           
18 17.01.21 тихо () -1{02}  2300 м  дымка  ясно 
-22.4 -24.2 85 -22  1023.6  0.5  760  335    -16.7    13   
21 17.01.21 270 (З) 1-2{03}  4500 м  дымка  ясно <0100 м 
-22.3 -24.7 81 -23  1023.8  0.2  760  335           
00 18.01.21 270 (З) 1-2{03}  6000 м  слаб. снег  8/8 240 м 
[Sc]
-22.8 -25.3 80 -23  1023.3  -0.5  759  336      0.0  13   
03 18.01.21 200 (Ю) 1-2{03}  8000 м  в посл. час снег  10/10 1500 м 
[Sc]
-20.2 -22.3 83 -20  1022.9  -0.4  759  332           
06 18.01.21 200 (Ю) 1-2{03}  7000 м  дымка{снег}  10/10 2000 м 
[Ac As]
-18 -20.1 84 -18  1022.5  -0.2  759  329  -22.3    0.0  13  равномерный
сухой снег
100% 
09 18.01.21 200 (Ю) 1-2{03}  8000 м  дымка  10/0 средняя 
[Ac As]
-16.2 -18.3 84 -16  1022.6  0.1  759  327           
12 18.01.21 160 (Ю) 3-3{03}  8000 м  слаб. снег  10/10 2000 м 
[Ac As]
-13.8 -16.4 81 -17  1021.5  -0.9  758  323      0.0  13   
15 18.01.21 190 (Ю) 2-3{04}  12000 м  в посл. час снег  10/0 средняя 
[Ac As]
-12.4 -15.3 79 -14  1021.1  -0.4  758  321           
18 18.01.21 190 (Ю) 3-4{04}  12000 м  {снег}  10/0 средняя 
[Ac As]
-12.4 -15 81 -16  1020.4  -0.7  758  321    -12.3  0.0  12   
21 18.01.21 180 (Ю) 4-5{05}  2300 м  слаб. снег  10/10 720 м 
[Ns]
-11.6 -13.4 86 -16  1020.1  -0.3  757  320           
00 19.01.21 190 (Ю) 4-4{06}  4400 м  слаб. снег  10/10 1260 м 
[Ns]
-11.3 -13.1 87 -15  1019.3  -0.7  757  319      0.7  14   
03 19.01.21 190 (Ю) 4-5{06}  4800 м  слаб. снег  10/10 1500 м 
[Ns]
-11.4 -13.4 85 -16  1018.8  -0.5  756  319           
06 19.01.21 180 (Ю) 4-5{05}  7000 м  в посл. час снег  10/10 1050 м 
[Ns]
-11.3 -13.6 83 -15  1018.5  -0.3  756  319  -12.4    0.9  15  равномерный
сухой снег
100% 
09 19.01.21 160 (Ю) 3-4{05}  5000 м  дымка  10/3 1000 м средняя 
[Sc|Ac As]
-11.1 -13.7 81 -14  1018.3  -0.2  756  319           
Время (UTC), дата Ветер
(°,м/с) 
Видим.   Явления Облачность Т
(°С)
Тd
(°С)
f(%) Тe
(°С)
Pmin
(гПа)
dP
(гПа)
Po
(мм)
O2
(г/м3)
Тmin Tmax R s Состояние
почвы

Для получения пояснительной информации подведите курсор к названию столбца.

ПОГОДА в Каунасе - архив

Всё, что Вы хотите узнать о погоде в Каунасе - удобно и подробно!

Выберите нужную дату (начиная с 1 января 2019* года) и нажмите кнопку "Найти".
Будут отображены архивные сводки погоды по пункту Каунас, начиная с указанной даты.


Отображать данные в формате CSV (для использования в таблицах Excel)


Внимание! Наш архив погоды предназначен исключительно для личного некоммерческого использования в познавательных целях. Если Вам необходимы официальные справки о состоянии погоды (для производственных, юридических, коммерческих и т.п. целей), обращайтесь в органы Росгидромета.

*Примечание: данная дата относится к архиву по метеостанциям СССР (Россия, СНГ, Балтия).
Архив по метеостанциям Зарубежной Европы и Азии (кроме Китая) хранится 10 дней, по другим регионам земного шара (Китай, Африка, Америка, Австралия, Океания) - 1 день.

Каунас - район местоположения метеостанции


Название, широта, долгота, высота метеостанции:
Каунас 54.9°ш. 23.8°д. 77 м над ур. моря [Литва]

Дополнительная информация

В oтличие oт бoльшинства пoгoдных сайтoв мы публикуем пoдрoбную метеoинфoрмацию в детальнoм прoфессиoнальнoм фoрмате.

Характеристики температуры и влажнoсти вoздуха измеряются на высoте 2 м в тени вдали oт зданий и деревьев.
Скoрoсть ветра измеряется на высoте 10 м (на урoвне рoста челoвека скoрoсть ветра ниже в 1.5-2 раза). Если метеoстанция нахoдится в гoрoде или в лесу, тo скoрoсть ветра занижена на 2-4 м/с пo сравнению с oткрытым местoм. Скoрoсть ветра над акватoриями крупных рек и oзёр, а также на вершинах хoлмoв на 2-5 м/с выше, чем в oбычных услoвиях.
Атмoсфернoе давление в разных тoчках местнoсти мoжет значительнo oтличаться oт давления на метеoстанции, в зависимoсти oт услoвий рельефа (при пoдъёме на 10 м давление пoнижается примернo на 1 мм рт.ст.).